Location: Unspecified
(42.3282°N, 0.0000°E)
Time: 04:32:22
(UTC+00:00)

SMOS - Visible Passes

Search period start: 04 April 2026 00:00
Search period end: 14 April 2026 00:00
Orbit: 759 x 760 km, 98.4° (Epoch: 29 March)

Date Brightness Start Highest point End Pass type
(mag) Time Alt. Az. Time Alt. Az. Time Alt. Az.
4 Apr 8.0 04:22:28 10° ESE 04:26:30 25° ENE 04:30:31 10° NNE visible
4 Apr 8.6 19:47:29 10° NNW 19:50:47 18° WNW 19:54:06 10° WSW visible
5 Apr 9.0 03:46:50 10° ENE 03:48:28 12° ENE 03:50:07 10° NE visible
5 Apr 7.2 19:08:01 10° N 19:12:39 37° WNW 19:17:16 10° SW visible
6 Apr 7.2 04:43:33 10° SE 04:48:10 38° ENE 04:52:48 10° N visible
6 Apr 9.0 20:10:43 10° NW 20:12:21 11° WNW 20:13:58 10° WNW visible
7 Apr 8.6 04:06:42 10° ESE 04:10:01 18° ENE 04:13:21 10° NNE visible
7 Apr 8.1 19:30:18 10° NNW 19:34:20 25° WNW 19:38:21 10° WSW visible
9 Apr 7.9 04:27:27 10° ESE 04:31:39 27° ENE 04:35:51 10° N visible
9 Apr 8.7 19:52:54 10° NNW 19:55:57 16° WNW 19:58:57 10° W visible
10 Apr 8.9 03:51:24 10° E 03:53:36 13° ENE 03:55:47 10° NNE visible
10 Apr 7.5 19:13:18 10° N 19:17:49 34° WNW 19:22:19 10° SW visible
11 Apr 7.0 04:48:37 10° SE 04:53:20 42° ENE 04:58:05 10° N visible
11 Apr 9.2 20:16:47 10° NW 20:17:27 10° WNW 20:18:07 10° WNW visible
12 Apr 8.5 04:11:36 10° ESE 04:15:09 20° ENE 04:18:44 10° NNE visible
12 Apr 8.3 19:35:38 10° NNW 19:39:28 22° WNW 19:43:18 10° WSW visible
